| time (UTC) | temp F | wind direction | speed MPH | gust MPH | rain 1hr in | rain 24hr in | rain mn in | humidity % | barometer mb |
| 20260505230014 | 50 | 342 | 3.0 | 4.0 | 0.00 | 0.00 | 0.00 | 78 | 1013.6 |
| 20260505224512 | 51 | 342 | 3.0 | 5.0 | 0.00 | 0.01 | 0.00 | 78 | 1013.7 |
| 20260505223013 | 50 | 350 | 3.0 | 6.0 | 0.00 | 0.01 | 0.00 | 77 | 1013.6 |
| 20260505221513 | 51 | 342 | 4.0 | 6.0 | 0.00 | 0.01 | 0.00 | 77 | 1013.6 |
| 20260505220024 | 51 | 326 | 3.0 | 5.0 | 0.00 | 0.01 | 0.00 | 76 | 1013.6 |
| 20260505214512 | 50 | 342 | 4.0 | 5.0 | 0.00 | 0.21 | 0.00 | 76 | 1013.8 |
| 20260505213013 | 50 | 355 | 2.0 | 5.0 | 0.00 | 0.21 | 0.00 | 76 | 1013.7 |
| 20260505211513 | 50 | 355 | 2.0 | 4.0 | 0.00 | 0.21 | 0.00 | 75 | 1013.8 |
| 20260505210024 | 51 | 5 | 4.0 | 5.0 | 0.00 | 0.21 | 0.00 | 74 | 1013.6 |
| 20260505204520 | 51 | 13 | 5.0 | 8.0 | 0.00 | 0.24 | 0.00 | 73 | 1013.6 |
| 20260505203022 | 52 | 14 | 4.0 | 8.0 | 0.00 | 0.24 | 0.00 | 73 | 1013.6 |
| 20260505201518 | 53 | 23 | 5.0 | 8.0 | 0.00 | 0.24 | 0.00 | 72 | 1013.4 |
| 20260505200016 | 54 | 24 | 7.0 | 10.0 | 0.00 | 0.24 | 0.00 | 71 | 1013.3 |
| 20260505194513 | 54 | 17 | 5.0 | 8.0 | 0.00 | 0.25 | 0.00 | 70 | 1013.3 |
| 20260505193025 | 55 | 33 | 7.0 | 11.0 | 0.00 | 0.25 | 0.00 | 68 | 1013.1 |
| 20260505191513 | 56 | 11 | 7.0 | 11.0 | 0.00 | 0.25 | 0.00 | 68 | 1013.0 |
| 20260505190014 | 56 | 19 | 10.0 | 14.0 | 0.00 | 0.25 | 0.00 | 65 | 1012.8 |
| 20260505183024 | 58 | 5 | 11.0 | 16.0 | 0.00 | 0.25 | 0.00 | 61 | 1012.6 |
| 20260505181516 | 57 | 349 | 7.0 | 12.0 | 0.00 | 0.25 | 0.00 | 62 | 1012.5 |
| 20260505180024 | 58 | 14 | 11.0 | 15.0 | 0.00 | 0.25 | 0.00 | 59 | 1012.5 |
| 20260505174516 | 60 | 5 | 11.0 | 15.0 | 0.00 | 0.25 | 0.00 | 57 | 1012.6 |
| 20260505173016 | 60 | 25 | 10.0 | 14.0 | 0.00 | 0.25 | 0.00 | 56 | 1012.6 |
| 20260505171522 | 61 | 355 | 10.0 | 14.0 | 0.00 | 0.25 | 0.00 | 51 | 1012.6 |
| 20260505164512 | 61 | 23 | 11.0 | 16.0 | 0.00 | 0.34 | 0.00 | 53 | 1012.7 |
| 20260505163025 | 62 | 5 | 11.0 | 17.0 | 0.00 | 0.34 | 0.00 | 51 | 1012.7 |
| 20260505161512 | 62 | 15 | 9.0 | 15.0 | 0.00 | 0.34 | 0.00 | 53 | 1012.7 |
| 20260505153013 | 61 | 34 | 11.0 | 16.0 | 0.00 | 0.34 | 0.00 | 57 | 1012.7 |
| 20260505151512 | 62 | 14 | 11.0 | 17.0 | 0.00 | 0.34 | 0.00 | 56 | 1012.8 |
| 20260505124512 | 60 | 44 | 9.0 | 16.0 | 0.00 | 0.34 | 0.00 | 67 | 1013.5 |
| 20260505123014 | 60 | 9 | 12.0 | 17.0 | 0.00 | 0.34 | 0.00 | 64 | 1013.6 |
| 20260505121513 | 60 | 55 | 9.0 | 16.0 | 0.00 | 0.34 | 0.00 | 65 | 1013.6 |
| 20260505120022 | 59 | 338 | 10.0 | 15.0 | 0.00 | 0.34 | 0.00 | 65 | 1013.6 |
| 20260505114512 | 58 | 45 | 12.0 | 18.0 | 0.00 | 0.34 | 0.00 | 66 | 1013.6 |
| 20260505111512 | 56 | 49 | 10.0 | 15.0 | 0.00 | 0.34 | 0.00 | 72 | 1013.8 |
| 20260505101512 | 55 | 34 | 10.0 | 14.0 | 0.00 | 0.34 | 0.00 | 76 | 1014.1 |
| 20260505100014 | 54 | 44 | 8.0 | 12.0 | 0.00 | 0.34 | 0.00 | 79 | 1014.2 |
| 20260505094514 | 53 | 36 | 9.0 | 13.0 | 0.00 | 0.34 | 0.00 | 81 | 1014.2 |
| 20260505093020 | 53 | 48 | 9.0 | 13.0 | 0.00 | 0.34 | 0.00 | 81 | 1014.2 |
| 20260505091513 | 53 | 45 | 12.0 | 18.0 | 0.00 | 0.34 | 0.00 | 79 | 1014.1 |
| 20260505090013 | 54 | 37 | 12.0 | 17.0 | 0.00 | 0.34 | 0.00 | 80 | 1014.1 |
| 20260505084512 | 53 | 16 | 10.0 | 14.0 | 0.00 | 0.34 | 0.00 | 84 | 1014.3 |
| 20260505083013 | 52 | 38 | 10.0 | 13.0 | 0.00 | 0.34 | 0.00 | 87 | 1014.4 |
| 20260505081512 | 52 | 30 | 10.0 | 15.0 | 0.00 | 0.34 | 0.00 | 90 | 1014.4 |
| 20260505074513 | 51 | 26 | 7.0 | 10.0 | 0.00 | 0.34 | 0.00 | 94 | 1014.5 |
| 20260505073029 | 51 | 5 | 7.0 | 11.0 | 0.00 | 0.34 | 0.00 | 95 | 1014.4 |
| 20260505071710 | 50 | 5 | 6.0 | 9.0 | 0.00 | 0.34 | 0.00 | 95 | 1014.4 |
| 20260505070047 | 49 | 30 | 6.0 | 9.0 | 0.00 | 0.34 | 0.00 | 95 | 1014.4 |
| 20260505064516 | 49 | 32 | 6.0 | 10.0 | 0.00 | 0.34 | 0.00 | 95 | 1014.5 |
| 20260505063025 | 49 | 27 | 4.0 | 6.0 | 0.00 | 0.34 | 0.00 | 95 | 1014.4 |
| 20260505061518 | 49 | 5 | 2.0 | 4.0 | 0.00 | 0.34 | 0.00 | 95 | 1014.3 |
| 20260505060023 | 48 | 19 | 2.0 | 4.0 | 0.00 | 0.34 | 0.00 | 95 | 1014.2 |
| 20260505054519 | 48 | 30 | 0.0 | 1.0 | 0.00 | 0.34 | 0.00 | 95 | 1014.2 |
| 20260505053013 | 48 | 30 | 1.0 | 3.0 | 0.00 | 0.34 | 0.00 | 95 | 1014.2 |
| 20260505051512 | 48 | 26 | 2.0 | 4.0 | 0.00 | 0.34 | 0.00 | 95 | 1014.2 |
| 20260505041513 | 49 | 57 | 3.0 | 5.0 | 0.00 | 0.34 | 0.00 | 95 | 1014.1 |
| 20260505040021 | 49 | 0.0 | 0.0 | 0.00 | 0.34 | 0.00 | 95 | 1014.0 | |
| 20260505034513 | 49 | 0.0 | 0.0 | 0.00 | 0.34 | 0.00 | 95 | 1014.1 | |
| 20260505033013 | 49 | 0.0 | 0.0 | 0.00 | 0.34 | 0.00 | 95 | 1014.0 | |
| 20260505031514 | 49 | 0.0 | 0.0 | 0.00 | 0.34 | 0.00 | 94 | 1014.1 | |
| 20260505030014 | 49 | 5 | 1.0 | 5.0 | 0.00 | 0.34 | 0.00 | 94 | 1014.0 |
| 20260505024513 | 50 | 5 | 2.0 | 5.0 | 0.00 | 0.34 | 0.00 | 94 | 1014.0 |
| 20260505023013 | 51 | 11 | 4.0 | 6.0 | 0.00 | 0.34 | 0.00 | 94 | 1014.0 |
| 20260505021512 | 51 | 346 | 4.0 | 6.0 | 0.00 | 0.34 | 0.00 | 95 | 1014.2 |
| 20260505020022 | 51 | 333 | 0.0 | 0.0 | 0.00 | 0.34 | 0.00 | 94 | 1014.3 |
| 20260505014515 | 51 | 62 | 0.0 | 0.0 | 0.00 | 0.34 | 0.00 | 95 | 1014.3 |
| 20260505013021 | 51 | 62 | 1.0 | 2.0 | 0.00 | 0.34 | 0.00 | 94 | 1014.4 |
| 20260505011514 | 51 | 62 | 2.0 | 3.0 | 0.00 | 0.34 | 0.00 | 94 | 1014.6 |
| 20260505010021 | 52 | 53 | 2.0 | 4.0 | 0.00 | 0.34 | 0.00 | 94 | 1014.5 |
| 20260505004511 | 52 | 35 | 2.0 | 4.0 | 0.00 | 0.34 | 0.00 | 94 | 1014.7 |
| 20260505003021 | 52 | 333 | 3.0 | 4.0 | 0.00 | 0.34 | 0.00 | 94 | 1014.7 |
| 20260505001512 | 52 | 94 | 0.0 | 0.0 | 0.00 | 0.34 | 0.00 | 94 | 1014.7 |
| 20260505000021 | 52 | 94 | 1.0 | 2.0 | 0.00 | 0.34 | 0.00 | 94 | 1014.7 |
| 20260504234513 | 52 | 94 | 2.0 | 3.0 | 0.00 | 0.34 | 0.00 | 94 | 1014.8 |